Погода в Худжанде

Погода в Худжанде : погода сейчас, прогноз погоды и архив. Всё, что Вы хотите узнать о погоде в Худжанде!

Поиск расширенной информации на нашем сайте:

Другие новости

Новости СМИ2

Главная страница сайта

Новости сайта

03.07.2017

Напоминаем, что на нашем специализированном сайте Метеоцентр.Азия вы можете получить высокодетализированные автоматические прогнозы погоды по пунктам России, СНГ и мира в авиационном формате (включающие направление и скорость ветра, видимость, явления погоды, количество и форму облачности, нижнюю и верхнюю границу облачности).

Рекомендуем: Как разбавить дресс-код?

Погода в Худжанде - сегодня

Время (UTC), дата Ветер
(°,м/с) 
Видим.   Явления Облачность Т
(°С)
Тd
(°С)
f(%) Тe
(°С)
Pmin
(гПа)
dP
(гПа)
Po
(мм)
O2
(г/м3)
Тmin Tmax R s Состояние
почвы
15 10.12.17 080 (В) 4000 м  дымка  ясно 
+2.9 -1.4 73 1030.4  -0.8  733  292    +5.7       
18 10.12.17 080 (В) 4000 м  дымка  ясно 
+2.4 -1.9 73 -1  1028.5  -1.9  732  292    +5.9       
21 10.12.17 090 (В) 4000 м  дымка  ясно 
+1.3 -1.9 79 -1  1027  -1.6  731  293           
00 11.12.17 340 (С) 4000 м  дымка  ясно 
+0.5 -2.5 80 1026.4  -0.7  730  294           
03 11.12.17 240 (ЮЗ) 4000 м  дымка  ясно 
-3.1 -4.9 87 -7  1028.1  0.9  731  298  -3.1         
06 11.12.17 270 (З) 4000 м  дымка  ясно 
-0.9 -3.6 82 -3  1027.8  0.1  731  296  -3.1         
09 11.12.17 240 (ЮЗ) 4000 м  дымка  ясно 
+2.8 -2.9 66 +1  1024.9  -2  729  291           
12 11.12.17 250 (З) 4000 м  дымка  ясно 
+1.1 -3.2 73 -2  1024.9  -0.3  729  293           
15 11.12.17 250 (З) 4000 м  дымка  ясно 
+0 -3.4 78 -2  1025.8  0.6  730  294    +3.2       
18 11.12.17 260 (З) 4000 м  дымка  ясно 
-1.9 -4.1 85 -4  1025.9  -0.3  729  296    +3.2       
21 11.12.17 240 (ЮЗ) 2000 м  дымка  ясно 
-2.9 -4.7 87 -7  1026  -0.1  729  297           
00 12.12.17 250 (З) 2000 м  дымка  9/9 100 м 
[St]
-4.8 -6.2 90 -9  1027.2  0.8  730  300           
03 12.12.17 260 (З) 2000 м  дымка  10/10 120 м 
[St]
-4.5 -5.7 91 -8  1028.6  1.4  731  300  -4.9         
06 12.12.17 270 (З) 2000 м  дымка  10/10 <0100 м 
[St]
-4.4 -6.1 88 -8  1029.7  1.1  732  300  -4.9         
09 12.12.17 260 (З) 4000 м  дымка  3/0 
-2.1 -6.4 72 -6    -0.4        90     
12 12.12.17 250 (З) 4000 м  дымка  3/0 верхняя 
[Ci fib]
-3.5 -6.3 81 -8  1030.6  1.4  733  300           
15 12.12.17 270 (З) 4000 м  дымка  8/0 верхняя 
[Ci fib]
-4.1 -6.4 84 -6  1032.7  1.9  734  301    -1.5       
18 12.12.17 150 (ЮВ) 4000 м  дымка  8/0 верхняя 
[Ci fib]
-5.2 -7.2 86 -5  1033.5  0.5  734  302    -1.5       
21 12.12.17 тихо ()   2000 м  дымка  9/0 верхняя 
[Ci fib]
-5.5 -7.3 87 -6  1033.4  -0.2  734  303           
00 13.12.17 тихо ()   2000 м  дымка  8/5 420 м верхняя 
[St|Ci fib]
-4.7 -6.5 87 -5  1034.2  734  302           
03 13.12.17 050 (СВ) 2000 м  дымка  5/0 верхняя 
[Ci fib]
-3.7 -5.4 88 -6  1033.1  -0.1  734  300  -6         
06 13.12.17 070 (В) 4000 м  дымка  4/1 300 м верхняя 
[Sc|Ci fib]
+0.9 -3.9 70 -2  1031.3  -0.8  734  295  -6         
09 13.12.17 070 (В) 2000 м  дымка  3/3 300 м 
[Sc]
+1.8 -3.5 68 -1  1029.5  -1.5  733  294           
12 13.12.17 050 (СВ) 2000 м  дымка  ясно 
+0.3 -3.9 73 1030.2  0.3  733  295           
15 13.12.17 тихо ()   2400 м  дымка  5/5 660 м 
[Sc]
-1.9 -4.4 83 -2  1030.9  0.3  733  298    +2.2       
Время (UTC), дата Ветер
(°,м/с) 
Видим.   Явления Облачность Т
(°С)
Тd
(°С)
f(%) Тe
(°С)
Pmin
(гПа)
dP
(гПа)
Po
(мм)
O2
(г/м3)
Тmin Tmax R s Состояние
почвы

Для получения пояснительной информации подведите курсор к названию столбца.

ПОГОДА в Худжанде - архив

Всё, что Вы хотите узнать о погоде в Худжанде - удобно и подробно!

Выберите нужную дату (начиная с 1 января 2015* года) и нажмите кнопку "Найти".
Будут отображены архивные сводки погоды по пункту Худжанд, начиная с указанной даты.


Отображать данные в формате CSV (для использования в таблицах Excel)


Внимание! Наш архив погоды предназначен исключительно для личного некоммерческого использования в познавательных целях. Если Вам необходимы официальные справки о состоянии погоды (для производственных, юридических, коммерческих и т.п. целей), обращайтесь в органы Росгидромета.

*Примечание: данная дата относится к архиву по метеостанциям СССР (Россия, СНГ, Балтия).
Архив по метеостанциям Зарубежной Европы и Азии (кроме Китая) хранится 10 дней, по другим регионам земного шара (Китай, Африка, Америка, Австралия, Океания) - 1 день.

Худжанд - район местоположения метеостанции


Название, широта, долгота, высота метеостанции:
Худжанд 40.2°ш. 69.7°д. 427 м над ур. моря [Таджикистан]

Дополнительная информация

В oтличие oт бoльшинства пoгoдных сайтoв мы публикуем пoдрoбную метеoинфoрмацию в детальнoм прoфессиoнальнoм фoрмате.

Характеристики температуры и влажнoсти вoздуха измеряются на высoте 2 м в тени вдали oт зданий и деревьев.
Скoрoсть ветра измеряется на высoте 10 м (на урoвне рoста челoвека скoрoсть ветра ниже в 1.5-2 раза). Если метеoстанция нахoдится в гoрoде или в лесу, тo скoрoсть ветра занижена на 2-4 м/с пo сравнению с oткрытым местoм. Скoрoсть ветра над акватoриями крупных рек и oзёр, а также на вершинах хoлмoв на 2-5 м/с выше, чем в oбычных услoвиях.
Атмoсфернoе давление в разных тoчках местнoсти мoжет значительнo oтличаться oт давления на метеoстанции, в зависимoсти oт услoвий рельефа (при пoдъёме на 10 м давление пoнижается примернo на 1 мм рт.ст.).